Voltar ao catálogo

STARLINK-33862

AtivoComunicaçõesVLEO
NORAD 63709·PAYLOAD·🇺🇸 United States

Lançado Apr 28, 2025 de Vandenberg Space Force Base

Loading…

Próximas Passagens (próximas 24 horas)

TLE

AtualizadoSource: CelesTrak SupGP

Época: Sep 14, 2026, 21:15 UTC

1 63709C 25087N   26257.88590278  .00060196  00000+0  17759-2 0  2575
2 63709  53.1604  59.8821 0000614  57.6284 129.0100 15.34407204    16

Acompanhe STARLINK-33862 em tempo real com AllMySat

Download on the App Store